OE6PWE-13 Weather Reports


Display with metric or nautical units.
time (UTC)temp
F
wind
direction
speed
MPH
gust
MPH
rain 1hr
in
rain 24hr
in
rain mn
in
humidity
%
barometer
mb
20260503020020 45 0 0.0 0.0 0.00 0.00 0.00 91 1020.0
20260503014513 45 0 0.0 1.0 0.00 0.00 0.00 91 1020.0
20260503013020 45 0 0.0 0.0 0.00 0.00 0.00 91 1020.0
20260503011513 45 0 0.0 0.0 0.00 0.00 0.00 90 1020.0
20260503010021 46 0 0.0 0.0 0.00 0.00 0.00 88 1020.0
20260503004513 45 0 0.0 2.0 0.00 0.00 0.00 91 1020.0
20260503003019 46 0 0.0 0.0 0.00 0.00 0.00 90 1020.0
20260503001512 46 0 0.0 0.0 0.00 0.00 0.00 89 1020.0
20260503000020 47 0 0.0 0.0 0.00 0.00 0.00 88 1020.0
20260502234513 47 0 0.0 0.0 0.00 0.00 0.00 88 1020.0
20260502233020 47 0 0.0 0.0 0.00 0.00 0.00 87 1021.0
20260502231513 47 0 0.0 0.0 0.00 0.00 0.00 86 1021.0
20260502230021 48 0 0.0 0.0 0.00 0.00 0.00 86 1021.0
20260502224513 48 0 0.0 0.0 0.00 0.00 0.00 85 1021.0
20260502223020 48 0 0.0 0.0 0.00 0.00 0.00 84 1021.0
20260502221513 49 0 0.0 0.0 0.00 0.00 0.00 82 1021.0
20260502220021 50 0 0.0 0.0 0.00 0.00 0.00 82 1021.0
20260502214513 50 180 0.0 2.0 0.00 0.00 0.00 81 1021.0
20260502213019 50 0 0.0 0.0 0.00 0.00 0.00 79 1021.0
20260502211513 51 0 0.0 0.0 0.00 0.00 0.00 80 1021.0
20260502210021 52 0 0.0 0.0 0.00 0.00 0.00 77 1021.0
20260502204513 52 0 0.0 0.0 0.00 0.00 0.00 76 1021.0
20260502203021 53 0 0.0 0.0 0.00 0.00 0.00 75 1021.0
20260502201513 53 0 0.0 0.0 0.00 0.00 0.00 74 1021.0
20260502200021 54 0 0.0 0.0 0.00 0.00 0.00 74 1021.0
20260502194513 56 0 0.0 0.0 0.00 0.00 0.00 71 1020.0
20260502193021 57 0 0.0 0.0 0.00 0.00 0.00 68 1020.0
20260502191513 59 0 0.0 0.0 0.00 0.00 0.00 63 1020.0
20260502184513 62 0 0.0 0.0 0.00 0.00 0.00 56 1019.0
20260502183019 64 0 0.0 0.0 0.00 0.00 0.00 53 1019.0
20260502181513 67 0 0.0 0.0 0.00 0.00 0.00 49 1018.0
20260502163019 75 90 0.0 4.0 0.00 0.00 0.00 36 1018.0
20260502161513 76 195 2.0 7.0 0.00 0.00 0.00 35 1018.0
20260502151513 78 146 2.0 5.0 0.00 0.00 0.00 34 1019.0
20260502123021 77 272 2.0 6.0 0.00 0.00 0.00 32 1020.0
20260502121513 78 232 1.0 4.0 0.00 0.00 0.00 33 1020.0
20260502114513 74 0 1.0 3.0 0.00 0.00 0.00 34 1021.0
20260502111513 74 248 4.0 11.0 0.00 0.00 0.00 39 1021.0
20260502110020 74 262 1.0 5.0 0.00 0.00 0.00 37 1021.0
20260502104513 74 257 2.0 5.0 0.00 0.00 0.00 38 1022.0
20260502103020 73 283 2.0 6.0 0.00 0.00 0.00 38 1022.0
20260502101513 71 248 2.0 6.0 0.00 0.00 0.00 40 1022.0
20260502091513 70 330 2.0 8.0 0.00 0.00 0.00 43 1023.0
20260502071513 62 270 0.0 2.0 0.00 0.00 0.00 57 1024.0
20260502070019 57 0 0.0 0.0 0.00 0.00 0.00 66 1025.0
20260502064513 51 0 0.0 0.0 0.00 0.00 0.00 73 1025.0
20260502063019 48 0 0.0 0.0 0.00 0.00 0.00 80 1026.0
20260502061513 45 0 0.0 0.0 0.00 0.00 0.00 93 1026.0
20260502060020 42 0 0.0 0.0 0.00 0.00 0.00 99 1026.0
20260502054513 40 0 0.0 0.0 0.00 0.00 0.00 99 1027.0
20260502053020 39 0 0.0 0.0 0.00 0.00 0.00 99 1027.0
20260502051513 39 0 0.0 0.0 0.00 0.00 0.00 99 1027.0
20260502050020 38 0 0.0 0.0 0.00 0.00 0.00 99 1027.0
20260502044513 37 0 0.0 0.0 0.00 0.00 0.00 99 1027.0
20260502043020 37 0 0.0 0.0 0.00 0.00 0.00 99 1027.0
20260502041513 37 0 0.0 0.0 0.00 0.00 0.00 99 1027.0
20260502040019 38 0 0.0 0.0 0.00 0.00 0.00 99 1026.0
20260502034513 37 0 0.0 0.0 0.00 0.00 0.00 99 1026.0
20260502033020 38 0 0.0 0.0 0.00 0.00 0.00 98 1026.0
20260502031514 38 0 0.0 0.0 0.00 0.00 0.00 98 1026.0
20260502024513 38 0 0.0 0.0 0.00 0.00 0.00 97 1026.0
20260502021513 39 0 0.0 0.0 0.00 0.00 0.00 96 1027.0